E0445 Weather Reports


Display with metric or nautical units.
time (UTC)temp
F
wind
direction
speed
MPH
gust
MPH
rain 1hr
in
rain 24hr
in
rain mn
in
humidity
%
barometer
mb
20260901000518 67 0 0.0 0.0 0.00 0.01 0.01 98 1018.6
20260901000037 67 0 0.0 0.0 0.00 0.01 0.01 98 1018.7
20260831235523 67 0 0.0 0.0 0.00 0.01 0.01 98 1018.7
20260831235020 67 0 0.0 0.0 0.00 0.01 0.01 98 1018.6
20260831234536 67 0 0.0 0.0 0.00 0.01 0.01 98 1018.7
20260831234020 67 0 0.0 0.0 0.00 0.01 0.01 98 1018.7
20260831233516 67 0 0.0 0.0 0.00 0.01 0.01 98 1018.8
20260831233034 67 0 0.0 0.0 0.00 0.01 0.01 98 1018.7
20260831232519 67 0 0.0 0.0 0.00 0.01 0.01 98 1018.8
20260831232018 67 0 0.0 0.0 0.00 0.01 0.01 98 1018.7
20260831231538 67 0 0.0 0.0 0.00 0.01 0.01 98 1018.7
20260831231018 67 0 0.0 0.0 0.00 0.01 0.01 98 1018.8
20260831230521 67 0 0.0 0.0 0.00 0.01 0.01 98 1018.9
20260831230038 67 0 0.0 1.0 0.00 0.01 0.01 98 1018.9
20260831225516 67 0 0.0 1.0 0.00 0.01 0.01 98 1019.0
20260831225018 67 0 0.0 0.0 0.00 0.01 0.01 98 1019.0
20260831224537 67 0 0.0 0.0 0.00 0.01 0.01 98 1019.2
20260831224020 67 0 0.0 1.0 0.00 0.01 0.01 98 1019.2
20260831223519 67 0 0.0 3.0 0.00 0.01 0.01 98 1019.2
20260831223035 67 0 0.0 3.0 0.00 0.01 0.01 98 1019.2
20260831222518 67 0 0.0 2.0 0.00 0.01 0.01 98 1019.3
20260831222017 67 0 0.0 4.0 0.00 0.01 0.01 98 1019.2
20260831221538 67 187 1.0 4.0 0.00 0.01 0.01 98 1019.3
20260831221022 67 189 0.0 5.0 0.00 0.01 0.01 98 1019.4
20260831220516 67 213 1.0 5.0 0.00 0.01 0.01 97 1019.4
20260831220034 67 194 0.0 4.0 0.00 0.01 0.01 97 1019.3
20260831215518 67 205 1.0 5.0 0.00 0.01 0.01 97 1019.4
20260831215018 67 189 2.0 5.0 0.00 0.01 0.01 97 1019.4
20260831214538 67 206 0.0 4.0 0.00 0.01 0.01 97 1019.4
20260831214020 67 0 0.0 4.0 0.00 0.01 0.01 97 1019.4
20260831213520 67 0 0.0 3.0 0.00 0.01 0.01 97 1019.2
20260831213036 67 0 1.0 3.0 0.00 0.01 0.01 97 1019.4
20260831212519 67 194 1.0 3.0 0.00 0.01 0.01 97 1019.4
20260831212019 67 0 0.0 2.0 0.00 0.01 0.01 97 1019.4
20260831211541 67 0 0.0 0.0 0.00 0.01 0.01 97 1019.4
20260831211017 67 0 0.0 0.0 0.00 0.01 0.01 97 1019.4
20260831210516 67 0 0.0 2.0 0.00 0.01 0.01 97 1019.4
20260831210035 67 0 0.0 4.0 0.00 0.01 0.01 97 1019.5
20260831205518 67 0 0.0 4.0 0.00 0.01 0.01 97 1019.5
20260831205016 67 198 0.0 7.0 0.00 0.01 0.01 97 1019.6
20260831204539 67 0 0.0 7.0 0.00 0.01 0.01 97 1019.5
20260831204021 67 163 3.0 7.0 0.00 0.01 0.01 96 1019.4
20260831203521 67 185 0.0 4.0 0.00 0.01 0.01 97 1019.6
20260831203032 67 178 1.0 4.0 0.00 0.01 0.01 97 1019.6
20260831202517 67 194 0.0 4.0 0.00 0.01 0.01 97 1019.6
20260831202016 67 213 2.0 4.0 0.00 0.01 0.01 97 1019.6
20260831201538 67 186 1.0 3.0 0.00 0.01 0.01 97 1019.6
20260831201017 67 0 1.0 3.0 0.00 0.01 0.01 97 1019.7
20260831200521 67 0 0.0 2.0 0.00 0.01 0.01 97 1019.6
20260831200037 66 0 0.0 2.0 0.00 0.01 0.01 97 1019.8
20260831195518 66 0 0.0 4.0 0.00 0.01 0.01 97 1019.9
20260831195020 66 0 1.0 4.0 0.00 0.01 0.01 97 1019.8
20260831194544 66 198 0.0 5.0 0.00 0.01 0.01 97 1020.0
20260831194021 66 198 1.0 6.0 0.00 0.01 0.01 97 1020.0
20260831193520 66 186 2.0 6.0 0.00 0.01 0.01 97 1020.2
20260831193042 66 193 0.0 4.0 0.00 0.01 0.01 98 1020.1
20260831192516 66 0 0.0 4.0 0.00 0.01 0.01 97 1020.2
20260831192018 66 188 1.0 4.0 0.00 0.01 0.01 97 1020.3
20260831191541 66 0 0.0 3.0 0.00 0.01 0.01 97 1020.3
20260831191020 66 0 0.0 5.0 0.00 0.01 0.01 97 1020.3
20260831190518 66 180 1.0 7.0 0.00 0.01 0.01 97 1020.3
20260831190058 66 183 2.0 7.0 0.00 0.01 0.01 97 1020.5
20260831185518 66 183 1.0 7.0 0.00 0.01 0.01 97 1020.4
20260831185017 66 0 0.0 6.0 0.00 0.01 0.01 98 1020.6
20260831184534 65 182 1.0 4.0 0.00 0.01 0.01 97 1020.6
20260831184019 65 200 1.0 4.0 0.00 0.01 0.01 97 1020.7
20260831183518 65 0 0.0 4.0 0.00 0.01 0.01 97 1020.7
20260831183038 65 181 1.0 4.0 0.00 0.01 0.01 97 1020.8
20260831182520 65 0 0.0 2.0 0.00 0.01 0.01 97 1020.9
20260831182021 65 157 1.0 2.0 0.00 0.01 0.01 97 1020.9
20260831181546 65 0 0.0 4.0 0.00 0.01 0.01 97 1020.9
20260831181020 65 0 1.0 4.0 0.00 0.01 0.01 97 1020.9
20260831180520 65 197 0.0 4.0 0.00 0.01 0.01 97 1021.0
20260831180038 65 197 0.0 4.0 0.00 0.01 0.01 97 1021.1
20260831175517 65 0 0.0 0.0 0.00 0.01 0.01 97 1021.1
20260831175019 65 0 0.0 2.0 0.00 0.01 0.01 97 1021.2
20260831174535 65 0 0.0 3.0 0.00 0.01 0.01 97 1021.3
20260831174016 65 0 0.0 3.0 0.00 0.01 0.01 96 1021.4
20260831173521 65 211 1.0 3.0 0.00 0.01 0.01 96 1021.4
20260831173037 65 0 0.0 1.0 0.00 0.01 0.01 96 1021.5
20260831172518 65 0 0.0 1.0 0.00 0.01 0.01 96 1021.4
20260831172018 65 0 0.0 1.0 0.00 0.01 0.01 96 1021.3
20260831171537 65 0 0.0 1.0 0.00 0.01 0.01 96 1021.3
20260831171017 65 0 0.0 1.0 0.00 0.01 0.01 95 1021.4
20260831170519 66 0 0.0 1.0 0.00 0.01 0.01 95 1021.4
20260831170036 66 0 0.0 1.0 0.00 0.01 0.01 95 1021.4
20260831165516 66 0 0.0 1.0 0.00 0.01 0.01 95 1021.4
20260831165019 66 0 0.0 0.0 0.00 0.01 0.01 94 1021.4
20260831164544 66 0 0.0 0.0 0.00 0.01 0.01 94 1021.4
20260831164017 66 0 0.0 4.0 0.00 0.01 0.01 93 1021.3
20260831163516 66 0 0.0 4.0 0.00 0.01 0.01 93 1021.3
20260831163035 66 0 0.0 4.0 0.00 0.01 0.01 93 1021.3
20260831162518 66 0 0.0 2.0 0.00 0.01 0.01 93 1021.3
20260831162019 66 0 0.0 2.0 0.00 0.01 0.01 92 1021.3
20260831161537 67 0 0.0 1.0 0.00 0.01 0.01 92 1021.4
20260831161018 67 0 0.0 0.0 0.00 0.01 0.01 92 1021.4
20260831160518 67 0 0.0 0.0 0.00 0.01 0.01 91 1021.5
20260831160034 67 0 0.0 0.0 0.00 0.01 0.01 90 1021.5
20260831155520 67 0 0.0 0.0 0.00 0.01 0.01 91 1021.5
20260831155021 67 0 0.0 0.0 0.00 0.01 0.01 90 1021.6
20260831154614 67 0 0.0 2.0 0.00 0.01 0.01 90 1021.4
20260831154020 67 0 0.0 2.0 0.00 0.01 0.01 89 1021.3
20260831153520 67 0 0.0 2.0 0.00 0.01 0.01 90 1021.4
20260831153048 67 0 0.0 1.0 0.00 0.01 0.01 90 1021.4
20260831152516 67 0 0.0 1.0 0.00 0.01 0.01 89 1021.4
20260831152017 67 0 0.0 2.0 0.00 0.01 0.01 89 1021.4
20260831151543 67 0 0.0 2.0 0.00 0.01 0.01 88 1021.4
20260831151018 67 0 0.0 2.0 0.00 0.01 0.01 88 1021.3
20260831150517 67 0 0.0 2.0 0.00 0.01 0.01 89 1021.3
20260831150033 67 0 0.0 2.0 0.00 0.01 0.01 91 1021.3
20260831145521 67 179 0.0 2.0 0.00 0.01 0.01 91 1021.4
20260831145024 67 0 0.0 0.0 0.00 0.01 0.01 92 1021.3
20260831144533 67 0 0.0 0.0 0.00 0.01 0.01 92 1021.1
20260831144017 67 0 0.0 0.0 0.00 0.01 0.01 93 1021.3
20260831143519 66 0 0.0 4.0 0.00 0.01 0.01 93 1021.3
20260831143039 66 0 0.0 4.0 0.00 0.01 0.01 93 1021.4
20260831142519 66 219 0.0 2.0 0.00 0.01 0.01 94 1021.4
20260831142018 66 0 0.0 2.0 0.00 0.01 0.01 94 1021.4
20260831141538 66 0 0.0 2.0 0.00 0.01 0.01 94 1021.4
20260831141018 66 161 0.0 5.0 0.00 0.01 0.01 95 1021.5
20260831140522 66 0 0.0 5.0 0.00 0.01 0.01 95 1021.5
20260831140038 66 0 0.0 3.0 0.00 0.01 0.01 95 1021.4
20260831135519 66 0 0.0 3.0 0.00 0.01 0.01 95 1021.4
20260831135021 66 0 0.0 3.0 0.00 0.01 0.01 96 1021.5
20260831134547 65 0 0.0 0.0 0.00 0.01 0.01 96 1021.6
20260831134020 65 0 0.0 2.0 0.00 0.01 0.01 97 1021.5
20260831133520 65 0 0.0 2.0 0.00 0.01 0.01 97 1021.5
20260831133036 65 0 0.0 4.0 0.00 0.01 0.01 97 1021.4
20260831132517 65 0 0.0 4.0 0.00 0.01 0.01 97 1021.6
20260831132020 65 113 0.0 3.0 0.00 0.01 0.01 98 1021.5
20260831131538 64 0 0.0 2.0 0.00 0.01 0.01 98 1021.6
20260831131019 65 0 0.0 2.0 0.00 0.01 0.01 98 1021.4
20260831130518 64 133 0.0 2.0 0.00 0.01 0.01 98 1021.4
20260831130038 64 0 0.0 2.0 0.00 0.01 0.01 98 1021.5
20260831125520 64 0 0.0 2.0 0.00 0.01 0.01 98 1021.4
20260831125024 64 0 0.0 1.0 0.00 0.01 0.01 98 1021.5
20260831124535 64 0 0.0 1.0 0.00 0.01 0.01 98 1021.5
20260831124019 64 0 0.0 0.0 0.00 0.01 0.01 98 1021.5
20260831123522 63 0 0.0 1.0 0.00 0.01 0.01 98 1021.5
20260831123034 63 0 0.0 1.0 0.00 0.01 0.01 98 1021.6
20260831122519 63 0 0.0 1.0 0.00 0.01 0.01 98 1021.6
20260831122022 63 0 0.0 0.0 0.00 0.01 0.01 99 1021.5
20260831121538 63 0 0.0 1.0 0.00 0.01 0.01 99 1021.6
20260831121021 63 0 0.0 1.0 0.00 0.01 0.01 98 1021.6
20260831120520 63 0 0.0 2.0 0.00 0.01 0.01 98 1021.6
20260831120045 63 0 0.0 3.0 0.00 0.01 0.01 98 1021.7
20260831115519 63 55 0.0 3.0 0.00 0.01 0.01 98 1021.7
20260831115021 63 0 0.0 0.0 0.00 0.01 0.01 98 1021.7
20260831114538 63 0 0.0 0.0 0.00 0.01 0.01 99 1021.6
20260831114018 63 0 0.0 0.0 0.00 0.01 0.01 99 1021.7
20260831113517 62 0 0.0 0.0 0.01 0.01 0.01 98 1021.7
20260831113042 62 0 0.0 0.0 0.01 0.01 0.01 98 1021.7
20260831112518 62 0 0.0 0.0 0.01 0.01 0.01 98 1021.7
20260831112022 62 0 0.0 0.0 0.01 0.01 0.01 98 1021.6
20260831111537 62 0 0.0 0.0 0.01 0.01 0.01 98 1021.5
20260831111021 62 0 0.0 0.0 0.01 0.01 0.01 98 1021.5
20260831110520 62 0 0.0 0.0 0.01 0.01 0.01 98 1021.2
20260831110037 62 0 0.0 0.0 0.01 0.01 0.01 98 1021.1
20260831105520 62 0 0.0 0.0 0.01 0.01 0.01 98 1020.9
20260831105018 62 0 0.0 0.0 0.01 0.01 0.01 98 1020.9
20260831104549 62 0 0.0 0.0 0.01 0.01 0.01 98 1020.7
20260831104016 62 0 0.0 0.0 0.00 0.00 0.00 98 1020.7
20260831103516 62 0 0.0 0.0 0.00 0.00 0.00 98 1020.8
20260831103036 62 0 0.0 0.0 0.00 0.00 0.00 98 1020.7
20260831102519 62 0 0.0 2.0 0.00 0.00 0.00 98 1020.6
20260831102020 62 0 0.0 3.0 0.00 0.00 0.00 98 1020.7
20260831101544 62 0 0.0 3.0 0.00 0.00 0.00 98 1020.7
20260831101019 62 5 1.0 2.0 0.00 0.00 0.00 98 1020.8
20260831100520 62 5 1.0 2.0 0.00 0.00 0.00 98 1020.8
20260831100035 62 5 0.0 2.0 0.00 0.00 0.00 98 1020.8
20260831095520 62 0 0.0 0.0 0.00 0.00 0.00 98 1020.8
20260831095020 62 0 0.0 0.0 0.00 0.00 0.00 98 1020.9
20260831094541 62 0 0.0 0.0 0.00 0.00 0.00 98 1020.9
20260831094017 62 0 0.0 0.0 0.00 0.00 0.00 98 1020.9
20260831093518 62 0 0.0 0.0 0.00 0.00 0.00 98 1020.9
20260831093057 62 0 0.0 0.0 0.00 0.00 0.00 98 1020.9
20260831092519 62 0 0.0 0.0 0.00 0.00 0.00 98 1020.9
20260831092017 62 0 0.0 0.0 0.00 0.00 0.00 98 1020.9
20260831091547 62 0 0.0 0.0 0.00 0.00 0.00 98 1021.0
20260831091018 62 0 0.0 0.0 0.00 0.00 0.00 98 1020.8
20260831090518 62 0 0.0 0.0 0.00 0.00 0.00 98 1020.7
20260831090034 62 0 0.0 0.0 0.00 0.00 0.00 98 1020.7
20260831085518 62 0 0.0 0.0 0.00 0.00 0.00 98 1020.6
20260831085022 62 0 0.0 0.0 0.00 0.00 0.00 98 1020.6
20260831084620 62 0 0.0 0.0 0.00 0.00 0.00 98 1020.6
20260831084018 62 0 0.0 0.0 0.00 0.00 0.00 98 1020.6
20260831083520 62 0 0.0 0.0 0.00 0.00 0.00 98 1020.5
20260831083045 62 0 0.0 0.0 0.00 0.00 0.00 98 1020.4
20260831082519 62 0 0.0 0.0 0.00 0.00 0.00 98 1020.5
20260831082021 62 0 0.0 0.0 0.00 0.00 0.00 98 1020.7
20260831081536 62 0 0.0 0.0 0.00 0.00 0.00 98 1020.7
20260831081019 62 0 0.0 0.0 0.00 0.00 0.00 98 1020.6
20260831080516 62 0 0.0 0.0 0.00 0.00 0.00 98 1020.7
20260831080050 62 0 0.0 0.0 0.00 0.00 0.00 98 1020.6
20260831075518 62 0 0.0 0.0 0.00 0.00 0.00 98 1020.6
20260831075021 62 0 0.0 0.0 0.00 0.00 0.00 98 1020.5
20260831074547 62 0 0.0 0.0 0.00 0.00 0.00 98 1020.5
20260831074018 62 0 0.0 0.0 0.00 0.00 0.00 98 1020.4
20260831073519 62 0 0.0 0.0 0.00 0.00 0.00 98 1020.4
20260831073043 62 0 0.0 0.0 0.00 0.00 0.00 98 1020.4
20260831072521 62 0 0.0 0.0 0.00 0.00 0.00 98 1020.4
20260831072016 62 0 0.0 0.0 0.00 0.00 0.00 98 1020.4
20260831071543 63 0 0.0 0.0 0.00 0.00 0.00 98 1020.4
20260831071021 63 0 0.0 0.0 0.00 0.00 0.00 98 1020.4
20260831070519 63 0 0.0 0.0 0.00 0.00 0.00 98 1020.4
20260831070038 63 0 0.0 0.0 0.00 0.00 0.00 98 1020.5
20260831065519 63 0 0.0 0.0 0.00 0.00 0.00 98 1020.6
20260831065019 63 0 0.0 0.0 0.00 0.00 0.00 98 1020.6
20260831064546 63 0 0.0 0.0 0.00 0.00 0.00 98 1020.6
20260831064020 63 0 0.0 0.0 0.00 0.00 0.00 98 1020.7
20260831063519 63 0 0.0 0.0 0.00 0.00 0.00 98 1020.8
20260831063043 63 0 0.0 0.0 0.00 0.00 0.00 98 1020.7
20260831062519 63 0 0.0 0.0 0.00 0.00 0.00 98 1020.7
20260831062019 63 0 0.0 0.0 0.00 0.00 0.00 98 1020.7
20260831061539 63 0 0.0 0.0 0.00 0.00 0.00 98 1020.9
20260831061018 63 0 0.0 0.0 0.00 0.00 0.00 98 1020.9
20260831060520 63 0 0.0 0.0 0.00 0.00 0.00 98 1021.0
20260831060037 63 0 0.0 0.0 0.00 0.00 0.00 98 1021.0
20260831055518 63 0 0.0 0.0 0.00 0.00 0.00 98 1021.0
20260831055018 63 0 0.0 0.0 0.00 0.00 0.00 98 1021.0
20260831054538 63 0 0.0 0.0 0.00 0.00 0.00 98 1021.1
20260831054027 63 0 0.0 0.0 0.00 0.00 0.00 98 1021.1
20260831053519 63 0 0.0 0.0 0.00 0.00 0.00 98 1021.1
20260831053050 63 0 0.0 0.0 0.00 0.00 0.00 98 1021.2
20260831052517 63 0 0.0 0.0 0.00 0.00 0.00 98 1021.3
20260831052016 63 0 0.0 1.0 0.00 0.00 0.00 98 1021.3
20260831051540 64 0 0.0 1.0 0.00 0.00 0.00 98 1021.4
20260831051018 64 0 0.0 3.0 0.00 0.00 0.00 98 1021.4
20260831050526 64 0 0.0 3.0 0.00 0.00 0.00 98 1021.3
20260831050038 64 0 0.0 0.0 0.00 0.00 0.00 98 1021.3
20260831045523 64 0 0.0 0.0 0.00 0.00 0.00 98 1021.4
20260831045020 64 0 0.0 0.0 0.00 0.00 0.00 98 1021.2
20260831044538 64 0 0.0 0.0 0.00 0.00 0.00 98 1021.3
20260831044019 64 0 0.0 0.0 0.00 0.00 0.00 98 1021.4
20260831043521 64 0 0.0 0.0 0.00 0.00 0.00 98 1021.3
20260831043041 65 0 0.0 0.0 0.00 0.00 0.00 98 1021.2
20260831042518 65 0 0.0 0.0 0.00 0.00 0.00 98 1021.1
20260831042018 65 0 0.0 0.0 0.00 0.00 0.00 98 1021.1
20260831041538 65 0 0.0 0.0 0.00 0.00 0.00 98 1021.1
20260831041017 65 0 0.0 0.0 0.00 0.00 0.00 98 1021.2
20260831040521 65 0 0.0 0.0 0.00 0.00 0.00 98 1021.2
20260831040041 65 0 0.0 0.0 0.00 0.00 0.00 98 1021.0
20260831035518 65 0 0.0 0.0 0.00 0.00 0.00 98 1021.1
20260831035018 65 0 0.0 0.0 0.00 0.00 0.00 98 1021.2
20260831034539 65 0 0.0 0.0 0.00 0.00 0.00 98 1021.3
20260831034016 65 0 0.0 0.0 0.00 0.00 0.00 98 1021.3
20260831033518 65 0 0.0 0.0 0.00 0.00 0.00 98 1021.2
20260831033046 65 0 0.0 0.0 0.00 0.00 0.00 98 1021.1
20260831032520 65 0 0.0 0.0 0.00 0.00 0.00 98 1021.1
20260831032019 65 0 0.0 0.0 0.00 0.00 0.00 98 1021.1
20260831031534 65 0 0.0 0.0 0.00 0.00 0.00 98 1021.1
20260831031019 65 0 0.0 0.0 0.00 0.00 0.00 98 1021.1
20260831030518 65 0 0.0 0.0 0.00 0.00 0.00 98 1021.2
20260831030043 65 0 0.0 0.0 0.00 0.00 0.00 98 1021.2
20260831025518 65 0 0.0 0.0 0.00 0.00 0.00 98 1021.3
20260831025018 65 0 0.0 0.0 0.00 0.00 0.00 98 1021.3
20260831024544 65 0 0.0 0.0 0.00 0.00 0.00 98 1021.2
20260831024021 65 0 0.0 0.0 0.00 0.00 0.00 98 1021.3
20260831023522 65 0 0.0 0.0 0.00 0.00 0.00 98 1021.3
20260831023036 65 0 0.0 0.0 0.00 0.00 0.00 98 1021.3
20260831022520 65 0 0.0 0.0 0.00 0.00 0.00 98 1021.4
20260831022020 65 0 0.0 0.0 0.00 0.00 0.00 98 1021.5
20260831021535 65 0 0.0 0.0 0.00 0.00 0.00 98 1021.5
20260831021019 65 0 0.0 0.0 0.00 0.00 0.00 98 1021.4
20260831020518 65 0 0.0 0.0 0.00 0.00 0.00 97 1021.3
20260831020040 65 0 0.0 0.0 0.00 0.00 0.00 97 1021.3
20260831015520 65 0 0.0 0.0 0.00 0.00 0.00 97 1021.4
20260831015020 65 0 0.0 0.0 0.00 0.00 0.00 97 1021.3
20260831014535 65 0 0.0 0.0 0.00 0.00 0.00 97 1021.2
20260831014020 65 0 0.0 0.0 0.00 0.00 0.00 97 1021.2
20260831013520 65 0 0.0 0.0 0.00 0.00 0.00 97 1021.2
20260831013036 65 0 0.0 0.0 0.00 0.00 0.00 97 1021.1
20260831012516 65 0 0.0 0.0 0.00 0.00 0.00 97 1021.0
20260831012021 65 0 0.0 0.0 0.00 0.00 0.00 97 1021.1
20260831011539 65 0 0.0 0.0 0.00 0.00 0.00 97 1020.9
20260831011017 66 0 0.0 0.0 0.00 0.00 0.00 97 1020.9
20260831010520 65 0 0.0 0.0 0.00 0.00 0.00 97 1020.8
20260831010036 66 0 0.0 0.0 0.00 0.00 0.00 97 1020.8
20260831005516 66 0 0.0 0.0 0.00 0.00 0.00 97 1020.8
20260831005019 66 0 0.0 0.0 0.00 0.00 0.00 97 1020.8
20260831004540 66 0 0.0 0.0 0.00 0.00 0.00 97 1020.8
20260831004019 66 0 0.0 0.0 0.00 0.00 0.00 97 1020.7
20260831003519 66 0 0.0 0.0 0.00 0.00 0.00 97 1020.6
20260831003035 66 0 0.0 0.0 0.00 0.00 0.00 97 1020.4
20260831002516 66 0 0.0 0.0 0.00 0.00 0.00 97 1020.4
20260831002020 66 0 0.0 0.0 0.00 0.00 0.00 97 1020.4
20260831001537 66 0 0.0 0.0 0.00 0.00 0.00 97 1020.4
20260831001020 66 0 0.0 0.0 0.00 0.00 0.00 97 1020.2